| time (UTC) | temp F | wind direction | speed MPH | gust MPH | rain 1hr in | rain 24hr in | rain mn in | humidity % | barometer mb |
| 20260510005137 | 84 | 129 | 3.0 | 9.0 | 0.00 | 0.00 | 0.00 | 50 | 1008.5 |
| 20260510004703 | 85 | 103 | 5.0 | 9.0 | 0.00 | 0.00 | 0.00 | 50 | 1008.4 |
| 20260510004127 | 85 | 120 | 4.0 | 8.0 | 0.00 | 0.00 | 0.00 | 53 | 1008.3 |
| 20260510003700 | 85 | 128 | 2.0 | 7.0 | 0.00 | 0.00 | 0.00 | 52 | 1008.2 |
| 20260510003227 | 85 | 128 | 3.0 | 7.0 | 0.00 | 0.00 | 0.00 | 52 | 1008.2 |
| 20260510002642 | 86 | 125 | 3.0 | 6.0 | 0.00 | 0.00 | 0.00 | 52 | 1008.2 |
| 20260510002207 | 86 | 89 | 3.0 | 6.0 | 0.00 | 0.00 | 0.00 | 51 | 1008.1 |
| 20260510001640 | 86 | 123 | 4.0 | 7.0 | 0.00 | 0.00 | 0.00 | 50 | 1008.0 |
| 20260510001147 | 86 | 133 | 2.0 | 6.0 | 0.00 | 0.00 | 0.00 | 51 | 1008.1 |
| 20260510000652 | 86 | 134 | 3.0 | 7.0 | 0.00 | 0.00 | 0.00 | 51 | 1008.0 |
| 20260510000145 | 86 | 134 | 3.0 | 9.0 | 0.00 | 0.00 | 0.00 | 50 | 1007.9 |
| 20260509235650 | 86 | 112 | 5.0 | 9.0 | 0.00 | 0.00 | 0.00 | 50 | 1007.9 |
| 20260509235201 | 86 | 124 | 6.0 | 9.0 | 0.00 | 0.00 | 0.00 | 50 | 1007.9 |
| 20260509234627 | 86 | 125 | 5.0 | 11.0 | 0.00 | 0.00 | 0.00 | 52 | 1007.9 |
| 20260509234154 | 86 | 128 | 6.0 | 12.0 | 0.00 | 0.00 | 0.00 | 52 | 1007.9 |
| 20260509233703 | 86 | 157 | 6.0 | 13.0 | 0.00 | 0.00 | 0.00 | 52 | 1007.9 |
| 20260509233131 | 87 | 135 | 7.0 | 10.0 | 0.00 | 0.00 | 0.00 | 51 | 1007.9 |
| 20260509232706 | 87 | 159 | 4.0 | 13.0 | 0.00 | 0.00 | 0.00 | 51 | 1007.8 |
| 20260509232131 | 87 | 143 | 8.0 | 13.0 | 0.00 | 0.00 | 0.00 | 49 | 1007.9 |
| 20260509231703 | 87 | 97 | 4.0 | 11.0 | 0.00 | 0.00 | 0.00 | 50 | 1007.7 |
| 20260509231208 | 87 | 111 | 5.0 | 11.0 | 0.00 | 0.00 | 0.00 | 50 | 1007.7 |
| 20260509230640 | 87 | 92 | 5.0 | 12.0 | 0.00 | 0.00 | 0.00 | 50 | 1007.8 |
| 20260509230203 | 88 | 95 | 7.0 | 12.0 | 0.00 | 0.00 | 0.00 | 50 | 1007.7 |
| 20260509225633 | 88 | 136 | 7.0 | 13.0 | 0.00 | 0.00 | 0.00 | 48 | 1007.7 |
| 20260509225159 | 89 | 98 | 9.0 | 13.0 | 0.00 | 0.00 | 0.00 | 46 | 1007.7 |
| 20260509224632 | 92 | 80 | 8.0 | 12.0 | 0.00 | 0.00 | 0.00 | 41 | 1007.8 |
| 20260509224154 | 92 | 262 | 1.0 | 7.0 | 0.00 | 0.00 | 0.00 | 38 | 1007.7 |
| 20260509223622 | 92 | 214 | 3.0 | 7.0 | 0.00 | 0.00 | 0.00 | 43 | 1007.6 |
| 20260509223156 | 92 | 186 | 4.0 | 8.0 | 0.00 | 0.00 | 0.00 | 39 | 1007.6 |
| 20260509222722 | 92 | 177 | 4.0 | 8.0 | 0.00 | 0.00 | 0.00 | 37 | 1007.6 |
| 20260509222134 | 92 | 204 | 2.0 | 6.0 | 0.00 | 0.00 | 0.00 | 37 | 1007.6 |
| 20260509221658 | 92 | 220 | 2.0 | 6.0 | 0.00 | 0.00 | 0.00 | 39 | 1007.6 |
| 20260509221201 | 91 | 242 | 3.0 | 8.0 | 0.00 | 0.00 | 0.00 | 42 | 1007.7 |
| 20260509220625 | 91 | 219 | 4.0 | 9.0 | 0.00 | 0.00 | 0.00 | 40 | 1007.7 |
| 20260509220157 | 91 | 205 | 5.0 | 9.0 | 0.00 | 0.00 | 0.00 | 41 | 1007.7 |
| 20260509215701 | 91 | 265 | 1.0 | 6.0 | 0.00 | 0.00 | 0.00 | 40 | 1007.8 |
| 20260509215133 | 91 | 117 | 3.0 | 5.0 | 0.00 | 0.00 | 0.00 | 39 | 1007.8 |
| 20260509214700 | 91 | 229 | 2.0 | 5.0 | 0.00 | 0.00 | 0.00 | 42 | 1007.8 |
| 20260509214136 | 90 | 276 | 1.0 | 4.0 | 0.00 | 0.00 | 0.00 | 43 | 1007.9 |
| 20260509213701 | 90 | 267 | 2.0 | 5.0 | 0.00 | 0.00 | 0.00 | 43 | 1007.9 |
| 20260509213126 | 90 | 242 | 3.0 | 8.0 | 0.00 | 0.00 | 0.00 | 43 | 1007.9 |
| 20260509212659 | 90 | 279 | 2.0 | 8.0 | 0.00 | 0.00 | 0.00 | 43 | 1008.0 |
| 20260509212125 | 90 | 217 | 4.0 | 8.0 | 0.00 | 0.00 | 0.00 | 44 | 1007.9 |
| 20260509211637 | 90 | 196 | 4.0 | 7.0 | 0.00 | 0.00 | 0.00 | 42 | 1007.9 |
| 20260509211203 | 90 | 166 | 2.0 | 5.0 | 0.00 | 0.00 | 0.00 | 44 | 1007.9 |
| 20260509210615 | 90 | 169 | 1.0 | 3.0 | 0.00 | 0.00 | 0.00 | 42 | 1008.0 |
| 20260509210140 | 90 | 157 | 1.0 | 7.0 | 0.00 | 0.00 | 0.00 | 40 | 1008.1 |
| 20260509205616 | 90 | 245 | 1.0 | 7.0 | 0.00 | 0.00 | 0.00 | 40 | 1008.2 |
| 20260509205141 | 90 | 285 | 2.0 | 6.0 | 0.00 | 0.00 | 0.00 | 42 | 1008.3 |
| 20260509204613 | 91 | 169 | 4.0 | 7.0 | 0.00 | 0.00 | 0.00 | 42 | 1008.4 |
| 20260509204116 | 90 | 238 | 4.0 | 7.0 | 0.00 | 0.00 | 0.00 | 43 | 1008.5 |
| 20260509203650 | 90 | 188 | 3.0 | 7.0 | 0.00 | 0.00 | 0.00 | 46 | 1008.5 |
| 20260509203115 | 90 | 19 | 1.0 | 7.0 | 0.00 | 0.00 | 0.00 | 45 | 1008.5 |
| 20260509202640 | 90 | 274 | 4.0 | 7.0 | 0.00 | 0.00 | 0.00 | 42 | 1008.7 |
| 20260509202215 | 90 | 253 | 1.0 | 8.0 | 0.00 | 0.00 | 0.00 | 44 | 1008.7 |
| 20260509201619 | 90 | 201 | 4.0 | 8.0 | 0.00 | 0.00 | 0.00 | 47 | 1008.8 |
| 20260509201151 | 90 | 169 | 1.0 | 7.0 | 0.00 | 0.00 | 0.00 | 46 | 1008.9 |
| 20260509200614 | 90 | 248 | 4.0 | 7.0 | 0.00 | 0.00 | 0.00 | 45 | 1008.9 |
| 20260509200147 | 89 | 175 | 0.0 | 8.0 | 0.00 | 0.00 | 0.00 | 47 | 1008.9 |
| 20260509195712 | 89 | 150 | 5.0 | 8.0 | 0.00 | 0.00 | 0.00 | 47 | 1009.0 |
| 20260509195223 | 89 | 199 | 4.0 | 8.0 | 0.00 | 0.00 | 0.00 | 46 | 1009.0 |
| 20260509194728 | 89 | 165 | 5.0 | 8.0 | 0.00 | 0.00 | 0.00 | 48 | 1009.1 |
| 20260509194144 | 89 | 169 | 4.0 | 7.0 | 0.00 | 0.00 | 0.00 | 49 | 1009.3 |
| 20260509193710 | 88 | 160 | 3.0 | 7.0 | 0.00 | 0.00 | 0.00 | 51 | 1009.4 |
| 20260509193200 | 88 | 201 | 1.0 | 7.0 | 0.00 | 0.00 | 0.00 | 51 | 1009.6 |
| 20260509192727 | 87 | 222 | 4.0 | 7.0 | 0.00 | 0.00 | 0.00 | 51 | 1009.7 |
| 20260509192132 | 87 | 269 | 1.0 | 4.0 | 0.00 | 0.00 | 0.00 | 53 | 1009.8 |
| 20260509191137 | 86 | 269 | 2.0 | 6.0 | 0.00 | 0.00 | 0.00 | 53 | 1010.0 |
| 20260509190711 | 86 | 254 | 3.0 | 6.0 | 0.00 | 0.00 | 0.00 | 52 | 1010.1 |
| 20260509190116 | 86 | 28 | 2.0 | 6.0 | 0.00 | 0.00 | 0.00 | 52 | 1010.2 |
| 20260509185650 | 87 | 355 | 4.0 | 6.0 | 0.00 | 0.00 | 0.00 | 52 | 1010.2 |
| 20260509185116 | 87 | 360 | 1.0 | 8.0 | 0.00 | 0.00 | 0.00 | 53 | 1010.2 |
| 20260509184141 | 86 | 169 | 4.0 | 10.0 | 0.00 | 0.00 | 0.00 | 57 | 1010.2 |
| 20260509183707 | 86 | 223 | 3.0 | 10.0 | 0.00 | 0.00 | 0.00 | 55 | 1010.2 |
| 20260509183138 | 85 | 263 | 3.0 | 7.0 | 0.00 | 0.00 | 0.00 | 55 | 1010.2 |
| 20260509182706 | 85 | 246 | 2.0 | 6.0 | 0.00 | 0.00 | 0.00 | 56 | 1010.3 |
| 20260509182136 | 85 | 184 | 2.0 | 6.0 | 0.00 | 0.00 | 0.00 | 57 | 1010.3 |
| 20260509181702 | 84 | 149 | 0.0 | 7.0 | 0.00 | 0.00 | 0.00 | 58 | 1010.5 |
| 20260509181134 | 84 | 272 | 4.0 | 7.0 | 0.00 | 0.00 | 0.00 | 59 | 1010.6 |
| 20260509180700 | 84 | 280 | 2.0 | 5.0 | 0.00 | 0.00 | 0.00 | 59 | 1010.7 |
| 20260509180116 | 84 | 229 | 1.0 | 8.0 | 0.00 | 0.00 | 0.00 | 59 | 1010.7 |
| 20260509175642 | 84 | 242 | 3.0 | 8.0 | 0.00 | 0.00 | 0.00 | 59 | 1010.7 |
| 20260509175154 | 84 | 360 | 2.0 | 5.0 | 0.00 | 0.00 | 0.00 | 59 | 1010.7 |
| 20260509174658 | 84 | 257 | 1.0 | 5.0 | 0.00 | 0.00 | 0.00 | 64 | 1010.8 |
| 20260509174123 | 83 | 294 | 2.0 | 5.0 | 0.00 | 0.00 | 0.00 | 61 | 1010.8 |
| 20260509173658 | 83 | 259 | 1.0 | 4.0 | 0.00 | 0.00 | 0.00 | 66 | 1011.0 |
| 20260509173122 | 82 | 90 | 2.0 | 4.0 | 0.00 | 0.00 | 0.00 | 65 | 1011.1 |
| 20260509172654 | 81 | 107 | 0.0 | 4.0 | 0.00 | 0.00 | 0.00 | 67 | 1011.1 |
| 20260509172117 | 81 | 187 | 0.0 | 6.0 | 0.00 | 0.00 | 0.00 | 69 | 1011.2 |
| 20260509171651 | 80 | 91 | 3.0 | 6.0 | 0.00 | 0.00 | 0.00 | 69 | 1011.2 |
| 20260509171118 | 80 | 317 | 3.0 | 7.0 | 0.00 | 0.00 | 0.00 | 70 | 1011.1 |
| 20260509170651 | 80 | 18 | 3.0 | 7.0 | 0.00 | 0.00 | 0.00 | 72 | 1011.2 |
| 20260509170116 | 80 | 261 | 1.0 | 6.0 | 0.00 | 0.00 | 0.00 | 72 | 1011.1 |
| 20260509165641 | 79 | 334 | 2.0 | 6.0 | 0.00 | 0.00 | 0.00 | 74 | 1011.2 |
| 20260509165115 | 79 | 185 | 1.0 | 5.0 | 0.00 | 0.00 | 0.00 | 75 | 1011.2 |
| 20260509164641 | 78 | 45 | 2.0 | 5.0 | 0.00 | 0.00 | 0.00 | 77 | 1011.3 |
| 20260509164114 | 78 | 338 | 1.0 | 5.0 | 0.00 | 0.00 | 0.00 | 79 | 1011.4 |
| 20260509163639 | 77 | 297 | 1.0 | 5.0 | 0.00 | 0.00 | 0.00 | 80 | 1011.4 |
| 20260509163117 | 77 | 325 | 1.0 | 5.0 | 0.00 | 0.00 | 0.00 | 82 | 1011.4 |
| 20260509162622 | 77 | 271 | 1.0 | 5.0 | 0.00 | 0.00 | 0.00 | 83 | 1011.5 |
| 20260509162156 | 76 | 348 | 3.0 | 5.0 | 0.00 | 0.00 | 0.00 | 84 | 1011.7 |
| 20260509161721 | 76 | 271 | 2.0 | 5.0 | 0.00 | 0.00 | 0.00 | 86 | 1011.7 |
| 20260509161129 | 75 | 355 | 1.0 | 5.0 | 0.00 | 0.00 | 0.00 | 87 | 1011.7 |
| 20260509160654 | 75 | 5 | 3.0 | 5.0 | 0.00 | 0.00 | 0.00 | 88 | 1011.7 |
| 20260509160119 | 75 | 342 | 2.0 | 5.0 | 0.00 | 0.00 | 0.00 | 88 | 1011.8 |
| 20260509155653 | 75 | 13 | 1.0 | 6.0 | 0.00 | 0.00 | 0.00 | 89 | 1011.8 |
| 20260509155118 | 75 | 344 | 3.0 | 6.0 | 0.00 | 0.00 | 0.00 | 90 | 1011.8 |
| 20260509154652 | 75 | 320 | 3.0 | 5.0 | 0.00 | 0.00 | 0.00 | 91 | 1011.7 |
| 20260509154117 | 75 | 211 | 1.0 | 2.0 | 0.00 | 0.00 | 0.00 | 92 | 1011.6 |
| 20260509153651 | 75 | 195 | 0.0 | 5.0 | 0.00 | 0.00 | 0.00 | 92 | 1011.6 |
| 20260509153121 | 75 | 195 | 1.0 | 7.0 | 0.00 | 0.00 | 0.00 | 94 | 1011.6 |
| 20260509152654 | 74 | 141 | 1.0 | 7.0 | 0.00 | 0.00 | 0.00 | 94 | 1011.5 |
| 20260509152219 | 74 | 225 | 4.0 | 9.0 | 0.00 | 0.00 | 0.00 | 95 | 1011.6 |
| 20260509151622 | 74 | 170 | 4.0 | 10.0 | 0.00 | 0.00 | 0.00 | 95 | 1011.4 |
| 20260509151155 | 73 | 173 | 5.0 | 10.0 | 0.00 | 0.00 | 0.00 | 95 | 1011.3 |
| 20260509150617 | 73 | 143 | 7.0 | 10.0 | 0.00 | 0.00 | 0.00 | 95 | 1011.5 |
| 20260509150148 | 73 | 178 | 5.0 | 9.0 | 0.00 | 0.00 | 0.00 | 95 | 1011.7 |
| 20260509145613 | 73 | 167 | 5.0 | 9.0 | 0.00 | 0.00 | 0.00 | 95 | 1011.9 |
| 20260509145121 | 72 | 166 | 5.0 | 7.0 | 0.00 | 0.00 | 0.00 | 95 | 1011.8 |
| 20260509144647 | 73 | 161 | 1.0 | 5.0 | 0.00 | 0.00 | 0.00 | 95 | 1012.0 |
| 20260509144211 | 72 | 161 | 2.0 | 5.0 | 0.00 | 0.00 | 0.00 | 95 | 1012.1 |
| 20260509143627 | 73 | 193 | 1.0 | 5.0 | 0.00 | 0.00 | 0.00 | 96 | 1012.0 |
| 20260509143153 | 73 | 140 | 3.0 | 5.0 | 0.00 | 0.00 | 0.00 | 96 | 1011.9 |
| 20260509142705 | 72 | 67 | 1.0 | 6.0 | 0.00 | 0.00 | 0.00 | 96 | 1011.6 |
| 20260509142130 | 72 | 67 | 2.0 | 6.0 | 0.00 | 0.00 | 0.00 | 96 | 1011.8 |
| 20260509141705 | 72 | 53 | 4.0 | 6.0 | 0.00 | 0.00 | 0.00 | 96 | 1011.6 |
| 20260509141131 | 72 | 317 | 2.0 | 6.0 | 0.00 | 0.00 | 0.00 | 96 | 1011.4 |
| 20260509140705 | 72 | 336 | 5.0 | 6.0 | 0.00 | 0.00 | 0.00 | 96 | 1011.4 |
| 20260509140229 | 72 | 29 | 2.0 | 5.0 | 0.00 | 0.00 | 0.00 | 96 | 1011.3 |
| 20260509135639 | 72 | 337 | 3.0 | 5.0 | 0.00 | 0.00 | 0.00 | 96 | 1011.2 |
| 20260509135204 | 72 | 24 | 2.0 | 5.0 | 0.00 | 0.00 | 0.00 | 96 | 1011.1 |
| 20260509134633 | 72 | 5 | 3.0 | 5.0 | 0.00 | 0.00 | 0.00 | 96 | 1011.1 |
| 20260509134204 | 72 | 347 | 1.0 | 4.0 | 0.00 | 0.00 | 0.00 | 96 | 1011.2 |
| 20260509133631 | 72 | 347 | 2.0 | 3.0 | 0.00 | 0.00 | 0.00 | 96 | 1011.3 |
| 20260509133145 | 72 | 326 | 1.0 | 2.0 | 0.00 | 0.00 | 0.00 | 96 | 1011.3 |
| 20260509132710 | 72 | 326 | 1.0 | 2.0 | 0.00 | 0.00 | 0.00 | 96 | 1011.2 |
| 20260509132113 | 72 | 326 | 1.0 | 2.0 | 0.00 | 0.00 | 0.00 | 96 | 1011.2 |
| 20260509131647 | 72 | 326 | 1.0 | 4.0 | 0.00 | 0.00 | 0.00 | 96 | 1011.3 |
| 20260509131152 | 72 | 326 | 1.0 | 4.0 | 0.00 | 0.00 | 0.00 | 96 | 1011.4 |
| 20260509130625 | 72 | 326 | 2.0 | 2.0 | 0.00 | 0.00 | 0.00 | 96 | 1011.4 |
| 20260509130151 | 72 | 326 | 1.0 | 5.0 | 0.00 | 0.00 | 0.00 | 96 | 1011.4 |
| 20260509125635 | 72 | 326 | 2.0 | 5.0 | 0.00 | 0.00 | 0.00 | 96 | 1011.3 |
| 20260509125208 | 72 | 331 | 1.0 | 3.0 | 0.00 | 0.00 | 0.00 | 96 | 1011.3 |
| 20260509124637 | 72 | 319 | 2.0 | 5.0 | 0.00 | 0.00 | 0.00 | 96 | 1011.2 |
| 20260509124208 | 72 | 306 | 3.0 | 5.0 | 0.00 | 0.00 | 0.00 | 96 | 1011.2 |
| 20260509123633 | 72 | 61 | 0.0 | 2.0 | 0.00 | 0.00 | 0.00 | 96 | 1011.1 |
| 20260509123205 | 72 | 60 | 0.0 | 4.0 | 0.00 | 0.00 | 0.00 | 96 | 1011.0 |
| 20260509122632 | 72 | 85 | 1.0 | 6.0 | 0.00 | 0.00 | 0.00 | 96 | 1011.0 |
| 20260509122137 | 72 | 42 | 1.0 | 6.0 | 0.00 | 0.00 | 0.00 | 96 | 1011.2 |
| 20260509121711 | 72 | 76 | 2.0 | 7.0 | 0.00 | 0.00 | 0.00 | 95 | 1011.2 |
| 20260509121113 | 72 | 24 | 4.0 | 7.0 | 0.00 | 0.00 | 0.00 | 95 | 1011.4 |
| 20260509120636 | 72 | 11 | 5.0 | 7.0 | 0.00 | 0.00 | 0.00 | 95 | 1011.3 |
| 20260509120206 | 72 | 44 | 3.0 | 6.0 | 0.00 | 0.00 | 0.00 | 95 | 1011.2 |
| 20260509115635 | 72 | 65 | 3.0 | 6.0 | 0.00 | 0.00 | 0.00 | 95 | 1011.1 |
| 20260509115205 | 72 | 342 | 1.0 | 5.0 | 0.00 | 0.00 | 0.00 | 95 | 1011.3 |
| 20260509114709 | 72 | 44 | 2.0 | 4.0 | 0.00 | 0.00 | 0.00 | 95 | 1011.2 |
| 20260509114141 | 72 | 48 | 0.0 | 6.0 | 0.00 | 0.00 | 0.00 | 95 | 1011.3 |
| 20260509113707 | 72 | 36 | 3.0 | 6.0 | 0.00 | 0.00 | 0.00 | 95 | 1011.3 |
| 20260509113140 | 72 | 10 | 1.0 | 5.0 | 0.00 | 0.00 | 0.00 | 95 | 1011.4 |
| 20260509112707 | 72 | 10 | 3.0 | 5.0 | 0.00 | 0.00 | 0.00 | 95 | 1011.5 |
| 20260509112131 | 72 | 40 | 2.0 | 6.0 | 0.00 | 0.00 | 0.00 | 95 | 1011.5 |
| 20260509111644 | 72 | 342 | 3.0 | 6.0 | 0.00 | 0.00 | 0.00 | 95 | 1011.5 |
| 20260509111207 | 72 | 9 | 3.0 | 6.0 | 0.00 | 0.00 | 0.00 | 95 | 1011.5 |
| 20260509110646 | 72 | 17 | 3.0 | 5.0 | 0.00 | 0.00 | 0.00 | 95 | 1011.3 |
| 20260509110149 | 72 | 17 | 2.0 | 4.0 | 0.00 | 0.00 | 0.00 | 95 | 1011.2 |
| 20260509105715 | 72 | 40 | 1.0 | 2.0 | 0.00 | 0.00 | 0.00 | 95 | 1011.0 |
| 20260509105227 | 72 | 82 | 1.0 | 4.0 | 0.00 | 0.00 | 0.00 | 95 | 1010.8 |
| 20260509104730 | 72 | 82 | 1.0 | 7.0 | 0.00 | 0.00 | 0.00 | 95 | 1010.8 |
| 20260509104142 | 72 | 87 | 3.0 | 7.0 | 0.00 | 0.00 | 0.00 | 95 | 1010.7 |
| 20260509103709 | 72 | 100 | 2.0 | 5.0 | 0.00 | 0.00 | 0.00 | 95 | 1010.7 |
| 20260509103140 | 72 | 84 | 2.0 | 4.0 | 0.00 | 0.00 | 0.00 | 95 | 1010.9 |
| 20260509102704 | 72 | 66 | 0.0 | 2.0 | 0.00 | 0.00 | 0.00 | 95 | 1011.0 |
| 20260509102129 | 72 | 94 | 0.0 | 0.0 | 0.00 | 0.00 | 0.00 | 95 | 1011.0 |
| 20260509101702 | 72 | 94 | 0.0 | 2.0 | 0.00 | 0.00 | 0.00 | 95 | 1011.0 |
| 20260509101131 | 72 | 94 | 0.0 | 2.0 | 0.00 | 0.00 | 0.00 | 95 | 1010.9 |
| 20260509100705 | 72 | 75 | 0.0 | 2.0 | 0.00 | 0.00 | 0.00 | 95 | 1010.8 |
| 20260509100228 | 72 | 75 | 0.0 | 4.0 | 0.00 | 0.00 | 0.00 | 95 | 1010.6 |
| 20260509095617 | 72 | 75 | 1.0 | 3.0 | 0.00 | 0.00 | 0.00 | 95 | 1010.4 |
| 20260509095204 | 72 | 57 | 0.0 | 4.0 | 0.00 | 0.00 | 0.00 | 94 | 1010.3 |
| 20260509094629 | 72 | 57 | 1.0 | 4.0 | 0.00 | 0.00 | 0.00 | 94 | 1010.3 |
| 20260509094159 | 72 | 28 | 2.0 | 5.0 | 0.00 | 0.00 | 0.00 | 94 | 1010.4 |
| 20260509093626 | 72 | 59 | 3.0 | 5.0 | 0.00 | 0.00 | 0.00 | 94 | 1010.3 |
| 20260509093138 | 72 | 40 | 3.0 | 5.0 | 0.00 | 0.00 | 0.00 | 94 | 1010.1 |
| 20260509092704 | 72 | 51 | 3.0 | 5.0 | 0.00 | 0.00 | 0.00 | 94 | 1010.1 |
| 20260509092129 | 72 | 61 | 2.0 | 4.0 | 0.00 | 0.00 | 0.00 | 94 | 1010.2 |
| 20260509091704 | 72 | 83 | 1.0 | 4.0 | 0.00 | 0.00 | 0.00 | 94 | 1010.2 |
| 20260509091128 | 72 | 114 | 0.0 | 0.0 | 0.00 | 0.00 | 0.00 | 94 | 1010.1 |
| 20260509090702 | 72 | 114 | 0.0 | 0.0 | 0.00 | 0.00 | 0.00 | 94 | 1010.0 |
| 20260509090132 | 72 | 114 | 0.0 | 0.0 | 0.00 | 0.00 | 0.00 | 94 | 1010.1 |
| 20260509085138 | 72 | 114 | 0.0 | 0.0 | 0.00 | 0.00 | 0.00 | 93 | 1010.0 |
| 20260509084703 | 72 | 114 | 0.0 | 0.0 | 0.00 | 0.00 | 0.00 | 93 | 1010.1 |
| 20260509084135 | 72 | 114 | 0.0 | 0.0 | 0.00 | 0.00 | 0.00 | 93 | 1010.1 |
| 20260509083701 | 72 | 114 | 0.0 | 0.0 | 0.00 | 0.00 | 0.00 | 93 | 1010.1 |
| 20260509083134 | 72 | 114 | 0.0 | 2.0 | 0.00 | 0.00 | 0.00 | 93 | 1010.1 |
| 20260509082700 | 72 | 114 | 0.0 | 2.0 | 0.00 | 0.00 | 0.00 | 93 | 1010.2 |
| 20260509082136 | 72 | 114 | 0.0 | 0.0 | 0.00 | 0.00 | 0.00 | 93 | 1010.3 |
| 20260509081704 | 72 | 114 | 0.0 | 2.0 | 0.00 | 0.00 | 0.00 | 93 | 1010.4 |
| 20260509081133 | 72 | 114 | 1.0 | 2.0 | 0.00 | 0.00 | 0.00 | 93 | 1010.3 |
| 20260509080638 | 72 | 88 | 1.0 | 4.0 | 0.00 | 0.00 | 0.00 | 93 | 1010.4 |
| 20260509080153 | 72 | 88 | 1.0 | 4.0 | 0.00 | 0.00 | 0.00 | 93 | 1010.3 |
| 20260509075616 | 72 | 111 | 1.0 | 4.0 | 0.00 | 0.00 | 0.00 | 92 | 1010.1 |
| 20260509075141 | 72 | 111 | 1.0 | 5.0 | 0.00 | 0.00 | 0.00 | 92 | 1010.0 |
| 20260509074614 | 72 | 123 | 2.0 | 5.0 | 0.00 | 0.00 | 0.00 | 92 | 1010.0 |
| 20260509074141 | 72 | 135 | 3.0 | 5.0 | 0.00 | 0.00 | 0.00 | 92 | 1010.1 |
| 20260509073616 | 72 | 140 | 2.0 | 4.0 | 0.00 | 0.00 | 0.00 | 92 | 1010.2 |
| 20260509073142 | 72 | 140 | 1.0 | 3.0 | 0.00 | 0.00 | 0.00 | 92 | 1010.1 |
| 20260509072615 | 72 | 141 | 1.0 | 4.0 | 0.00 | 0.00 | 0.00 | 92 | 1010.1 |
| 20260509072119 | 72 | 141 | 1.0 | 4.0 | 0.00 | 0.00 | 0.00 | 92 | 1010.1 |
| 20260509071654 | 72 | 106 | 1.0 | 2.0 | 0.00 | 0.00 | 0.00 | 92 | 1010.0 |
| 20260509071115 | 72 | 174 | 0.0 | 5.0 | 0.00 | 0.00 | 0.00 | 91 | 1010.0 |
| 20260509070641 | 72 | 209 | 3.0 | 5.0 | 0.00 | 0.00 | 0.00 | 91 | 1010.2 |
| 20260509070114 | 72 | 188 | 0.0 | 4.0 | 0.00 | 0.00 | 0.00 | 91 | 1010.2 |
| 20260509065619 | 72 | 188 | 1.0 | 5.0 | 0.00 | 0.00 | 0.00 | 91 | 1010.3 |
| 20260509065117 | 72 | 215 | 2.0 | 5.0 | 0.00 | 0.00 | 0.00 | 91 | 1010.3 |
| 20260509064642 | 72 | 138 | 0.0 | 2.0 | 0.00 | 0.00 | 0.00 | 91 | 1010.2 |
| 20260509064145 | 72 | 169 | 0.0 | 5.0 | 0.00 | 0.00 | 0.00 | 91 | 1010.2 |
| 20260509063628 | 72 | 159 | 1.0 | 7.0 | 0.00 | 0.00 | 0.00 | 91 | 1010.2 |
| 20260509063125 | 72 | 167 | 4.0 | 8.0 | 0.00 | 0.00 | 0.00 | 91 | 1010.3 |
| 20260509062649 | 72 | 158 | 4.0 | 8.0 | 0.00 | 0.00 | 0.00 | 91 | 1010.3 |
| 20260509062132 | 72 | 176 | 5.0 | 6.0 | 0.00 | 0.00 | 0.00 | 91 | 1010.4 |
| 20260509061629 | 72 | 185 | 3.0 | 6.0 | 0.00 | 0.00 | 0.00 | 91 | 1010.3 |
| 20260509061135 | 72 | 161 | 3.0 | 7.0 | 0.00 | 0.00 | 0.00 | 91 | 1010.4 |
| 20260509060638 | 72 | 176 | 5.0 | 7.0 | 0.00 | 0.00 | 0.00 | 91 | 1010.4 |
| 20260509060114 | 72 | 166 | 2.0 | 6.0 | 0.00 | 0.00 | 0.00 | 90 | 1010.4 |
| 20260509055617 | 72 | 157 | 3.0 | 5.0 | 0.00 | 0.00 | 0.00 | 90 | 1010.6 |
| 20260509055142 | 72 | 146 | 2.0 | 4.0 | 0.00 | 0.00 | 0.00 | 90 | 1010.6 |
| 20260509054646 | 72 | 159 | 1.0 | 4.0 | 0.00 | 0.00 | 0.00 | 90 | 1010.8 |
| 20260509054124 | 72 | 168 | 2.0 | 6.0 | 0.00 | 0.00 | 0.00 | 90 | 1010.8 |
| 20260509053627 | 72 | 146 | 3.0 | 6.0 | 0.00 | 0.00 | 0.00 | 90 | 1010.7 |
| 20260509053132 | 71 | 150 | 2.0 | 5.0 | 0.00 | 0.00 | 0.00 | 90 | 1010.8 |
| 20260509052630 | 71 | 167 | 1.0 | 5.0 | 0.00 | 0.00 | 0.00 | 90 | 1011.0 |
| 20260509052135 | 71 | 167 | 2.0 | 5.0 | 0.00 | 0.00 | 0.00 | 90 | 1011.0 |
| 20260509051632 | 70 | 168 | 1.0 | 5.0 | 0.00 | 0.00 | 0.00 | 90 | 1011.0 |
| 20260509051117 | 70 | 167 | 3.0 | 5.0 | 0.00 | 0.00 | 0.00 | 89 | 1011.1 |
| 20260509050614 | 70 | 163 | 1.0 | 6.0 | 0.00 | 0.00 | 0.00 | 89 | 1011.1 |
| 20260509050136 | 70 | 155 | 1.0 | 2.0 | 0.00 | 0.00 | 0.00 | 88 | 1011.1 |
| 20260509045613 | 70 | 155 | 0.0 | 1.0 | 0.00 | 0.00 | 0.00 | 88 | 1011.0 |
| 20260509045118 | 70 | 156 | 0.0 | 2.0 | 0.00 | 0.00 | 0.00 | 88 | 1010.9 |
| 20260509044652 | 70 | 155 | 0.0 | 2.0 | 0.00 | 0.00 | 0.00 | 88 | 1010.8 |
| 20260509044115 | 70 | 155 | 1.0 | 2.0 | 0.00 | 0.00 | 0.00 | 87 | 1010.6 |
| 20260509043650 | 70 | 155 | 1.0 | 2.0 | 0.00 | 0.00 | 0.00 | 87 | 1010.5 |
| 20260509043115 | 70 | 156 | 1.0 | 2.0 | 0.00 | 0.00 | 0.00 | 87 | 1010.5 |
| 20260509042637 | 69 | 155 | 1.0 | 2.0 | 0.00 | 0.00 | 0.00 | 86 | 1010.5 |
| 20260509042148 | 69 | 155 | 1.0 | 2.0 | 0.00 | 0.00 | 0.00 | 85 | 1010.4 |
| 20260509041714 | 69 | 155 | 0.0 | 2.0 | 0.00 | 0.00 | 0.00 | 85 | 1010.2 |
| 20260509041227 | 70 | 155 | 1.0 | 2.0 | 0.00 | 0.00 | 0.00 | 85 | 1010.1 |
| 20260509040632 | 70 | 112 | 0.0 | 0.0 | 0.00 | 0.00 | 0.00 | 85 | 1010.0 |
| 20260509040203 | 70 | 112 | 0.0 | 1.0 | 0.00 | 0.00 | 0.00 | 85 | 1010.0 |
| 20260509035729 | 70 | 111 | 0.0 | 2.0 | 0.00 | 0.00 | 0.00 | 84 | 1010.0 |
| 20260509035144 | 70 | 111 | 0.0 | 2.0 | 0.00 | 0.00 | 0.00 | 84 | 1010.1 |
| 20260509034709 | 71 | 112 | 0.0 | 1.0 | 0.00 | 0.00 | 0.00 | 84 | 1010.1 |
| 20260509034140 | 71 | 111 | 0.0 | 0.0 | 0.00 | 0.00 | 0.00 | 84 | 1010.2 |
| 20260509033646 | 71 | 111 | 0.0 | 0.0 | 0.00 | 0.00 | 0.00 | 84 | 1010.2 |
| 20260509033155 | 71 | 111 | 0.0 | 0.0 | 0.00 | 0.00 | 0.00 | 84 | 1010.1 |
| 20260509032721 | 71 | 112 | 0.0 | 1.0 | 0.00 | 0.00 | 0.00 | 84 | 1010.1 |
| 20260509032132 | 72 | 111 | 0.0 | 2.0 | 0.00 | 0.00 | 0.00 | 84 | 1010.1 |
| 20260509031658 | 72 | 112 | 1.0 | 2.0 | 0.00 | 0.00 | 0.00 | 84 | 1010.1 |
| 20260509031124 | 72 | 111 | 0.0 | 0.0 | 0.00 | 0.00 | 0.00 | 83 | 1010.2 |
| 20260509030657 | 72 | 112 | 0.0 | 0.0 | 0.00 | 0.00 | 0.00 | 83 | 1010.1 |
| 20260509030223 | 72 | 111 | 0.0 | 1.0 | 0.00 | 0.00 | 0.00 | 83 | 1010.0 |
| 20260509025637 | 72 | 112 | 0.0 | 2.0 | 0.00 | 0.00 | 0.00 | 83 | 1010.0 |
| 20260509025203 | 72 | 111 | 1.0 | 2.0 | 0.00 | 0.00 | 0.00 | 82 | 1010.0 |
| 20260509024731 | 72 | 111 | 1.0 | 2.0 | 0.00 | 0.00 | 0.00 | 82 | 1010.0 |
| 20260509024134 | 73 | 111 | 0.0 | 2.0 | 0.00 | 0.00 | 0.00 | 81 | 1009.9 |
| 20260509023709 | 73 | 111 | 0.0 | 2.0 | 0.00 | 0.00 | 0.00 | 81 | 1009.9 |
| 20260509023134 | 73 | 112 | 1.0 | 2.0 | 0.00 | 0.00 | 0.00 | 81 | 1009.9 |
| 20260509022708 | 73 | 111 | 1.0 | 2.0 | 0.00 | 0.00 | 0.00 | 81 | 1009.9 |
| 20260509022134 | 73 | 111 | 0.0 | 2.0 | 0.00 | 0.00 | 0.00 | 81 | 1009.8 |
| 20260509021708 | 73 | 112 | 1.0 | 2.0 | 0.00 | 0.00 | 0.00 | 80 | 1009.5 |
| 20260509021133 | 74 | 111 | 1.0 | 1.0 | 0.00 | 0.00 | 0.00 | 80 | 1009.4 |
| 20260509020707 | 74 | 112 | 0.0 | 1.0 | 0.00 | 0.00 | 0.00 | 79 | 1009.4 |
| 20260509020113 | 74 | 111 | 0.0 | 2.0 | 0.00 | 0.00 | 0.00 | 79 | 1009.2 |
| 20260509015637 | 74 | 111 | 0.0 | 2.0 | 0.00 | 0.00 | 0.00 | 79 | 1009.1 |
| 20260509015207 | 74 | 111 | 0.0 | 2.0 | 0.00 | 0.00 | 0.00 | 79 | 1009.0 |
| 20260509014730 | 74 | 111 | 1.0 | 2.0 | 0.00 | 0.00 | 0.00 | 78 | 1009.0 |
| 20260509014141 | 74 | 111 | 0.0 | 2.0 | 0.00 | 0.00 | 0.00 | 78 | 1009.0 |
| 20260509013707 | 74 | 111 | 0.0 | 1.0 | 0.00 | 0.00 | 0.00 | 78 | 1008.9 |
| 20260509013118 | 75 | 112 | 0.0 | 4.0 | 0.00 | 0.00 | 0.00 | 78 | 1008.9 |
| 20260509012643 | 75 | 111 | 1.0 | 4.0 | 0.00 | 0.00 | 0.00 | 78 | 1008.7 |
| 20260509012116 | 75 | 112 | 2.0 | 4.0 | 0.00 | 0.00 | 0.00 | 77 | 1008.6 |
| 20260509011642 | 75 | 111 | 1.0 | 4.0 | 0.00 | 0.00 | 0.00 | 77 | 1008.7 |
| 20260509011119 | 75 | 111 | 1.0 | 4.0 | 0.00 | 0.00 | 0.00 | 77 | 1008.8 |
| 20260509010645 | 75 | 118 | 1.0 | 4.0 | 0.00 | 0.00 | 0.00 | 76 | 1008.8 |
| 20260509010119 | 75 | 134 | 1.0 | 4.0 | 0.00 | 0.00 | 0.00 | 76 | 1008.8 |
| 20260509005642 | 75 | 134 | 1.0 | 4.0 | 0.00 | 0.00 | 0.00 | 76 | 1008.8 |